Welcome to the New NWS' Forecast!
Most changes are behind the scenes, but click here for differences you might notice.
Latest weather observations around

San Francisco, San Francisco International Airport (KSFO)

Using English Units (Switch to International System of Units)
Date/ Time (PST) Wind (mph) Vis. (mi) Weather Sky Cond. Temp (°F) Rel. Humidity Wind Chill (°F) Heat Index (°F) Pressure Precip. (in)
Air Dwpt 6 hour Altimeter (inHg) Sea level (inHg) 1 hr 3 hr 6 hr
Max Min
Nov 16 13:56 N 6 1.5 Smoke BKN017 61 42     50%     29.96 29.96      
Nov 16 12:56 NE 5 1.5 Smoke BKN017 61 36     39%     29.98 29.98      
Nov 16 11:56 E 3 1.5 Smoke BKN018 60 36     40%     30.01 30      
Nov 16 10:56 E 5 1.5 Smoke BKN026 59 40     49%     30.03 30.03      
Nov 16 09:56 3 1.5 Clear   55 35     47%     30.04 30.03      
Nov 16 09:33 SE 5 1.5 Smoke BKN029 54 35     49%     30.04        
Nov 16 08:56 SE 6 1.5 Smoke SCT038 53 36     52%     30.04 30.04      
Nov 16 07:56 SSE 3 1.5 Smoke SCT013 47 40     76% 46   30.04 30.03      
Nov 16 07:10 E 3 1.5 Smoke FEW005 SCT013 50 38     63%     30.02        
Nov 16 06:56 SE 3 1.5 Smoke FEW003 BKN013 48 40     73% 47   30.03 30.02      
Nov 16 05:56 Calm 1.5 Smoke FEW003 BKN013 45 41     86%     30.02 30.02      
Nov 16 04:56 S 3 1.5 Smoke FEW003 BKN013 48 42     80% 47   30.03 30.03      
Nov 16 03:56 Calm 1.5 Clear   46 39     76%     30.03 30.03      
Nov 16 02:56 Calm 1.5 Smoke FEW003 BKN013 47 39     74%     30.04 30.04      
Nov 16 01:56 S 3 1.5 Smoke FEW003 BKN013 47 39     74% 46   30.05 30.04      
Nov 16 00:56 N 3 1.5 Smoke FEW003 BKN013 54 41     61%     30.05 30.05      
Nov 15 23:56 Calm 1.5 Smoke FEW003 BKN013 51 35     54%     30.06 30.06      
Nov 15 22:56 S 5 1.5 Smoke FEW003 BKN015 50 37     61%     30.06 30.06      
Nov 15 21:56 S 3 1.5 Smoke FEW003 BKN015 53 39     59%     30.06 30.06      
Nov 15 20:56 S 3 1.5 Smoke FEW002 BKN021 53 38     56%     30.06 30.06      
Nov 15 19:56 Calm 1.5 Smoke FEW003 BKN021 53 38     56%     30.06 30.06      
Nov 15 18:56 Calm 1.5 Smoke FEW003 BKN022 56 34     43%     30.06 30.06      
Nov 15 17:56 S 3 1.5 Smoke FEW005 BKN020 58 40     51%     30.06 30.06      
Nov 15 16:56 E 3 1.25 Smoke FEW005 BKN015 BKN180 58 46     65%     30.06 30.06      
Nov 15 15:56 E 3 1.5 Smoke SCT005 BKN015 60 46     60%     30.06 30.06      
Nov 15 14:56 Calm 1.5 Smoke SCT005 BKN015 62 37     39%     30.07 30.07      
Nov 15 13:56 N 5 2 Haze FEW005 OVC015 61 38     42%     30.08 30.08      
Nov 15 13:16 N 5 2 Haze FEW005 OVC015 59 39     47%     30.09        
Nov 15 12:56 Calm 2.5 Haze FEW005 OVC015 58 40     51%     30.1 30.1      
Nov 15 11:56 Calm 2.5 Haze FEW005 OVC015 58 44     60%     30.14 30.13      
Nov 15 11:05 ENE 3 2.5 Haze FEW006 OVC018 56 45     67%     30.16        
Nov 15 11:03 ENE 3 10 Cloudy OVC018 56 45     67%     30.16        
Nov 15 10:56 ENE 3 2.5 Haze FEW006 OVC018 55 45     69%     30.16 30.16      
Nov 15 09:56 Calm 2.5 Haze FEW006 SCT018 OVC020 54 44     69%     30.17 30.17      
Nov 15 08:56 SSE 3 2.5 Haze FEW006 SCT018 OVC020 52 42     69%     30.18 30.18      
Nov 15 07:56 S 5 2.5 Haze FEW006 SCT018 OVC021 47 41     80% 45   30.18 30.18      
Nov 15 06:56 Calm 2.5 Haze FEW006 SCT018 OVC021 48 38     68%     30.17 30.17      
Nov 15 05:56 SSW 3 3 Haze FEW018 BKN028 OVC032 44 36     73% 43   30.16 30.16      
Nov 15 04:56 Calm 3 Haze FEW018 BKN028 OVC032 45 31     58%     30.16 30.16      
Nov 15 04:24 SW 5 3 Haze FEW018 BKN025 45 33     63% 43   30.17        
Nov 15 03:56 SW 3 3 Haze FEW018 SCT032 44 33     65% 43   30.17 30.16      
Nov 15 02:56 SSW 5 4 Haze FEW008 BKN032 46 32     58% 44   30.18 30.18      
Nov 15 01:56 SW 5 4 Haze FEW008 BKN022 OVC031 47 30     52% 45   30.2 30.2      
Nov 15 00:56 Calm 3 Haze FEW008 BKN028 OVC031 51 30     44%     30.2 30.2      
Nov 14 23:56 S 5 4 Haze FEW008 BKN024 49 34     56% 47   30.21 30.21      
Nov 14 22:56 Calm 4 Haze FEW005 BKN021 51 30     44%     30.21 30.21      
Nov 14 21:56 S 3 3 Haze FEW005 BKN021 54 31     41%     30.23 30.22      
Nov 14 20:56 Calm 3 Haze FEW005 BKN023 55 30     38%     30.23 30.23      
Nov 14 19:56 S 5 3 Haze FEW005 SCT021 55 34     45%     30.22 30.22      
Nov 14 18:56 W 5 3 Haze FEW005 FEW019 59 27     29%     30.22 30.22      
Nov 14 17:56 W 9 3 Haze FEW005 FEW019 59 28     31%     30.22 30.22      
Nov 14 16:56 WNW 7 2.5 Haze FEW005 FEW019 SCT180 61 30     31%     30.22 30.22      
Nov 14 15:56 Calm 2.5 Haze FEW005 SCT020 SCT160 61 43     52%     30.22 30.22      
Nov 14 14:56 Calm 2.5 Haze FEW008 SCT160 61 40     46%     30.23 30.23      
Nov 14 13:56 NNE 5 4 Haze FEW008 SCT160 62 43     50%     30.25 30.25      
Nov 14 12:56 N 6 4 Haze FEW008 SCT160 59 42     53%     30.27 30.27      
Nov 14 11:56 NNE 5 4 Haze FEW008 SCT160 59 42     53%     30.3 30.3      
Nov 14 09:56 Calm 4 Haze FEW008 SCT160 56 42     60%     30.35 30.35      
Nov 14 08:56 S 3 4 Haze FEW008 SCT160 52 41     66%     30.36 30.36      
Nov 14 07:56 E 3 4 Haze FEW008 SCT012 SCT160 51 44     77%     30.36 30.36      
Nov 14 06:56 S 3 4 Fog/Mist FEW008 SCT160 47 44     90% 46   30.34 30.34      
Nov 14 05:56 S 3 5 Haze FEW200 47 41     80% 46   30.35 30.35      
Nov 14 04:56 Calm 5 Haze FEW200 47 40     76%     30.35 30.35      
Nov 14 03:56 Calm 5 Haze FEW200 46 39     76%     30.35 30.35      
Nov 14 02:56 W 5 5 Haze FEW200 47 38     71% 45   30.35 30.35      
Nov 14 01:56 SW 7 5 Haze FEW200 47 37     68% 44   30.36 30.36      
Nov 14 00:56 Calm 5 Haze FEW200 48 35     61%     30.36 30.36      
Nov 13 23:56 Calm 5 Haze FEW200 54 41     61%     30.36 30.36      
Nov 13 22:56 SE 6 5 Haze FEW200 53 37     54%     30.36 30.36      
Nov 13 21:56 Calm 5 Haze FEW180 55 36     48%     30.37 30.37      
Nov 13 20:56 Calm 4 Haze FEW180 55 40     57%     30.36 30.36      
Nov 13 19:56 S 3 4 Haze SCT180 56 38     51%     30.35 30.35      
Nov 13 18:56 SSE 3 4 Haze SCT180 55 41     59%     30.35 30.35      
Nov 13 17:56 Calm 4 Haze SCT180 58 44     60%     30.36 30.36      
Nov 13 16:56 Calm 4 Haze BKN180 58 45     62%     30.36 30.35      
Nov 13 15:56 Calm 4 Haze BKN180 60 43     53%     30.36 30.36      
Nov 13 14:56 NE 3 4 Haze BKN180 61 41     48%     30.37 30.37      
Nov 13 13:56 NNE 3 3 Haze BKN180 59 43     55%     30.37 30.37      
Nov 13 12:56 Calm 3 Haze BKN180 58 41     53%     30.38 30.38      
Nov 13 11:56 Calm 3 Haze BKN180 60 44     55%     30.4 30.4      
Nov 13 10:56 Calm 3 Haze BKN180 58 44     60%     30.42 30.42      
Nov 13 09:56 Calm 3 Haze BKN180 55 45     69%     30.42 30.41      
Nov 13 08:56 S 3 3 Haze SCT180 56 45     67%     30.41 30.41      
Nov 13 07:56 Calm 3 Haze SCT180 53 44     71%     30.4 30.4      
Nov 13 06:56 Calm 3 Haze SCT018 48 41     77%     30.38 30.38      
Nov 13 05:56 SW 3 3 Haze CLR 47 40     76% 46   30.37 30.36      
Nov 13 04:56 Calm 3 Haze CLR 48 38     68%     30.35 30.35      
Nov 13 03:56 SW 3 4 Haze FEW180 47 39     74% 46   30.35 30.35      
Nov 13 02:56 Calm 4 Haze FEW180 48 38     68%     30.35 30.35      
Nov 13 01:56 SW 3 4 Haze FEW180 48 38     68% 47   30.35 30.35      
Nov 13 00:56 Calm 4 Haze FEW180 52 40     63%     30.35 30.35      
Nov 12 23:56 Calm 4 Haze SCT180 51 37     59%     30.34 30.34      
Nov 12 22:56 Calm 5 Haze FEW180 54 36     50%     30.34 30.34      
Nov 12 21:56 Calm 6 Haze FEW180 55 35     47%     30.34 30.33      
Nov 12 20:56 Calm 6 Haze FEW180 55 39     55%     30.31 30.31      
Nov 12 19:56 Calm 6 Haze FEW180 56 35     45%     30.31 30.31      
Nov 12 18:56 S 3 7 Mostly Clear FEW200 59 34     39%     30.31 30.3      
Nov 12 17:56 S 3 6 Haze FEW180 60 39     46%     30.29 30.29      
Nov 12 16:56 ENE 3 6 Haze FEW180 62        %     30.28 30.28      
Nov 12 15:56 Calm 5 Haze CLR 65        %     30.27 30.27      
Nov 12 14:56 Calm 5 Haze CLR 66 35     32%     30.27 30.27      
Nov 12 13:56 NE 3 5 Haze CLR 65 43     45%     30.27 30.27      
Nov 12 12:56 Calm 5 Haze CLR 65 34     32%     30.28 30.28      
Nov 12 11:56 Calm 4 Haze CLR 62 31     31%     30.29 30.29      
Nov 12 10:56 E 5 5 Haze CLR 61 31     32%     30.31 30.3      
Nov 12 09:56 ESE 3 5 Haze CLR 58 27     30%     30.3 30.3      
Nov 12 08:56 SSE 7 5 Haze CLR 54 28     37%     30.29 30.29      
Nov 12 07:56 SE 7 6 Haze FEW025 50 31     48%     30.28 30.28      
Nov 12 06:56 SSE 3 6 Haze SCT025 48 30     50% 47   30.26 30.26      
Nov 12 05:56 Calm 4 Smoke FEW007 SCT030 44 28     53%     30.25 30.24      
Nov 12 04:56 SSW 5 4 Smoke FEW007 SCT030 44 26     49% 41   30.24 30.24      
Nov 12 03:56 Calm 4 Smoke FEW007 SCT030 44 25     47%     30.23 30.22      
Nov 12 02:56 SSW 5 4 Smoke FEW007 SCT030 45 27     49% 43   30.22 30.22      
Nov 12 01:56 Calm 4 Smoke FEW007 SCT030 48 26     42%     30.21 30.21      
Nov 12 00:56 S 3 4 Smoke FEW007 SCT025 48 33     56% 47   30.21 30.21      
Nov 11 23:56 Calm 4 Smoke FEW007 SCT025 50 30     46%     30.21 30.2      
Nov 11 22:56 SSE 3 4 Smoke FEW007 SCT025 53 30     41%     30.2 30.2      
Nov 11 21:56 SSW 3 4 Smoke FEW007 FEW025 SCT030 53 31     43%     30.19 30.19      
Nov 11 20:56 S 3 4 Smoke FEW007 FEW025 SCT035 56 31     38%     30.18 30.18      
Nov 11 19:56 Calm 5 Smoke FEW007 SCT025 60 39     46%     30.15 30.15      
Nov 11 18:56 ENE 8 5 Smoke FEW007 BKN025 59        %     30.14 30.13      
Nov 11 17:56 Calm 7 Smoke FEW007 SCT027 61 29     30%     30.12 30.12      
Nov 11 16:56 ESE 5 8 Partly Cloudy SCT033 65 29     26%     30.12 30.11      
Nov 11 15:56 E 7 9 Mostly Clear FEW028 64        %     30.1 30.1      
Nov 11 14:56 NE 13 9 Mostly Clear FEW028 65        %     30.09 30.09      
Nov 11 13:56 NE 15 10 Partly Cloudy FEW031 SCT038 66        %     30.09 30.09      
Nov 11 12:56   10 Partly Cloudy FEW027 SCT038 66        %     30.1 30.09      
Nov 11 11:56 E 8 10 Partly Cloudy SCT200 65 31     28%     30.1 30.1      
Nov 11 10:56 E 6 10 Mostly Clear FEW200 63 30     29%     30.11 30.11      
Nov 11 09:56 ESE 8 10 Mostly Cloudy FEW150 BKN180 61 28     28%     30.1 30.1      
Nov 11 08:56 E 11 10 Mostly Clear FEW200 62 32     32%     30.1 30.09      
Nov 11 07:56 ESE 9 10 Mostly Clear FEW200 58 29     33%     30.09 30.08      
Nov 11 06:56 SSE 8 10 Mostly Clear FEW015 48 34     58% 44   30.06 30.06      
Notice The following observation data may not be complete
Nov 11 05:56 Calm 10 Partly Cloudy FEW006 SCT015   32      %     30.04 30.04      
Notice The following observation data may not be complete
Nov 11 05:52 Calm 10 Partly Cloudy FEW006 SCT015   32      %     30.04        
Nov 11 04:56 5 6 Haze and Smoke FEW006 BKN015 48 38     68% 46   30.03 30.03      
Nov 11 03:56 Calm 7 Smoke FEW007 BKN017 44 35     70%     30.02 30.02      
Nov 11 02:56 Calm 5 Haze and Smoke FEW007 OVC017 47 39     74%     30.03 30.02      
Nov 11 02:14 SSW 6 6 Haze and Smoke FEW005 OVC015 47 39     74% 44   30.03        
Nov 11 02:03 SSW 5 10 Smoke CLR 47 38     71% 45   30.03        
Nov 11 01:56 SSW 5 6 Haze and Smoke FEW005 OVC015 47 37     68% 45   30.02 30.02      
Nov 11 00:56 Calm 6 Haze and Smoke FEW005 OVC015 49 39     69%     30.02 30.02      
Nov 10 23:56 N 5 6 Haze and Smoke FEW005 BKN015 52 42     69%     30.01 30.01      
Nov 10 23:47 N 7 6 Haze and Smoke FEW005 BKN015 56 44     64%     30.01        
Nov 10 22:56 Calm 6 Smoke SCT018 52 37     57%     30 30      
Nov 10 21:56 N 6 4 Smoke FEW004 SCT017 54 42     64%     30 30      
Nov 10 21:25 Calm 4 Smoke FEW004 SCT017 54 38     55%     29.99        
Nov 10 20:56 SW 3 4 Smoke FEW004 BKN017 51 36     56%     29.98 29.98      
Nov 10 19:56 Calm 4 Smoke FEW004 BKN022 53 32     45%     29.98 29.98      
Nov 10 18:56 SSE 5 4 Smoke FEW004 BKN028 55 34     45%     29.97 29.97      
Nov 10 17:56 Calm 3 Smoke FEW003 BKN042 56 35     45%     29.96 29.96      
Nov 10 16:56 Calm 3 Smoke FEW002 FEW025 BKN042 61 31     32%     29.96 29.96      
Nov 10 15:56 Calm 3 Smoke FEW003 OVC040 62 33     34%     29.97 29.97      
Nov 10 14:56 Calm 4 Smoke FEW003 OVC040 61 36     39%     29.97 29.97      
Nov 10 13:56 Calm 6 Smoke FEW015 BKN039 OVC046 59 38     45%     29.98 29.98      
Nov 10 12:56 Calm 6 Smoke FEW011 BKN030 OVC036 58 40     51%     30 29.99      
Nov 10 11:56 Calm 6 Smoke FEW011 SCT028 OVC038 58 40     51%     30.03 30.02      
Nov 10 11:41 NNE 3 6 Smoke FEW011 SCT028 OVC038 59 41     51%     30.04        
Nov 10 10:56 Calm 5 Smoke FEW009 BKN026 OVC031 56 42     60%     30.05 30.05      
Nov 10 09:56 Calm 5 Smoke FEW009 BKN026 OVC031 56 43     62%     30.06 30.06      
Nov 10 08:56 Calm 5 Smoke FEW008 BKN024 BKN031 54 44     69%     30.05 30.05      
Nov 10 07:56 Calm 5 Smoke FEW008 BKN028 BKN038 48 42     80%     30.05 30.05      
Nov 10 06:56 SSW 3 4 Smoke FEW006 BKN022 OVC028 45 40     82% 44   30.04 30.04      
Nov 10 05:56 W 7 3 Smoke FEW005 BKN022 OVC027 47 38     71% 44   30.03 30.03      
Nov 10 04:56 WNW 5 3 Smoke FEW005 BKN022 OVC027 45 36     71% 43   30.03 30.03      
Nov 10 03:56 WSW 5 3 Smoke FEW006 BKN022 BKN027 44 34     67% 41   30.03 30.03      
Nov 10 02:56 WSW 5 6 Smoke FEW006 BKN022 OVC030 46 32     58% 44   30.04 30.03      
Nov 10 01:56 NW 3 6 Smoke FEW006 BKN022 OVC038 50 32     50%     30.06 30.06      
Nov 10 00:56 Calm 6 Smoke FEW006 BKN022 BKN038 50 30     46%     30.07 30.06      
Nov 09 23:56 SSW 3 6 Smoke FEW004 BKN022 OVC030 51 32     48%     30.07 30.07      
Nov 09 22:56 Calm 5 Smoke FEW004 BKN023 OVC032 53 28     38%     30.08 30.08      
Nov 09 21:56 SSW 5 5 Smoke FEW004 BKN025 OVC032 52 27     38%     30.09 30.09      
Nov 09 20:56 S 5 6 Smoke FEW004 OVC042 55 23     29%     30.08 30.08      
Nov 09 19:56 S 5 6 Smoke FEW006 FEW023 OVC040 53 28     38%     30.08 30.08      
Nov 09 18:56 W 7 6 Smoke FEW006 FEW023 OVC050 57 26     30%     30.08 30.08      
Nov 09 17:56 Calm 6 Smoke FEW004 SCT023 OVC050 58 28     32%     30.06 30.06      
Nov 09 16:56 NW 6 6 Smoke FEW004 SCT023 BKN055 62 29     28%     30.06 30.06      
Nov 09 16:31 NW 7 6 Smoke FEW004 SCT023 BKN050 63        %     30.06        
Nov 09 15:56 NNE 3 5 Smoke FEW004 BKN023 BKN050 66 35     32%     30.07 30.06      
Nov 09 14:56 Calm 4 Smoke FEW006 BKN023 66 34     30%     30.08 30.07      
Nov 09 13:56 NNW 3 3 Smoke FEW009 OVC025 67 24     20%     30.1 30.09      
Nov 09 12:56 Calm 3 Smoke FEW009 OVC027 67 31     26%     30.11 30.11      
Nov 09 12:05 ENE 3 3 Smoke FEW009 OVC027 64        %     30.13        
Nov 09 12:03 Calm 10 Smoke OVC027 64        %     30.13        
Nov 09 11:56 E 3 3 Smoke FEW009 OVC030 65        %     30.14 30.14      
Nov 09 10:56 SE 7 3 Smoke FEW009 OVC032 65 15     14%     30.16 30.16      
Nov 09 09:56 SE 8 3 Smoke FEW009 OVC032 61 20     20%     30.17 30.17      
Nov 09 08:56 SE 10 3 Smoke FEW009 OVC031 59 22     24%     30.17 30.17      
Nov 09 07:56 SE 7 3 Smoke FEW009 BKN031 54 24     31%     30.16 30.16      
Nov 09 06:56 SSE 6 3 Smoke FEW009 BKN031 54 21     27%     30.14 30.14      
Nov 09 06:39 SSE 7 3 Smoke FEW009 OVC031 54 25     32%     30.14        
Notice The following observation data may not be complete
Nov 09 05:56 SSE 8 2 Smoke SCT033          %     30.14 30.14      
Nov 09 04:56 SSE 8 2 Smoke BKN033 54        %     30.14 30.14      
Nov 09 03:56 SSE 7 2 Smoke BKN033 55        %     30.13 30.13      
Nov 09 03:25 SSE 10 3 Haze BKN033 55        %     30.13        
Notice The following observation data may not be complete
Nov 09 02:56 SE 9 6 Haze BKN033          %     30.14 30.14      
Nov 09 01:56 SE 9 6 Haze BKN030 58        %     30.14 30.14      
Nov 09 01:30 SE 8 3 Haze BKN030 57        %     30.14        
Nov 09 00:56 SSE 9 6 Haze BKN030 60 22     23%     30.14 30.14      
Nov 08 23:56 ESE 13 10 Mostly Clear FEW030 63 22     21%     30.13 30.13      
Nov 08 22:56 SE 13 10 Clear CLR 61 27     27%     30.12 30.12      
Nov 08 21:56 SE 10 10 Clear CLR 61 25     25%     30.12 30.12      
Nov 08 20:56 ESE 11 10 Clear CLR 62 22     21%     30.11 30.11      
Nov 08 19:56 SSE 7 10 Clear CLR 60 31     33%     30.1 30.1      
Nov 08 18:56 ESE 6 10 Clear CLR 65 32     29%     30.09 30.09      
Nov 08 17:56 ENE 6 8 Mostly Clear FEW008 65 43     45%     30.08 30.08      
Nov 08 16:56 ENE 10 6 Smoke FEW008 FEW026 65 43     45%     30.06 30.06      
Nov 08 15:56 NE 8 2 Smoke FEW008 SCT026 67 44     44%     30.06 30.06      
Nov 08 14:56 ENE 10 2 Haze FEW008 SCT034 68        %     30.05 30.05      
Nov 08 13:56 E 9 9 Mostly Cloudy FEW008 FEW160 BKN200 67        %     30.06 30.06      
Nov 08 12:56 NE 15 9 Mostly Cloudy FEW160 BKN200 67        %     30.07 30.06      
Nov 08 11:56 NE 6 10 Mostly Clear FEW180 67 32     27%     30.08 30.08      
Nov 08 10:56 SSW 3 10 Clear CLR 64 31     29%     30.1 30.09      
Nov 08 09:56 NNE 7 10 Clear CLR 64 37     37%     30.1 30.1      
Nov 08 08:56 ESE 3 10 Clear CLR 61 40     46%     30.1 30.1      
Nov 08 07:56 SE 5 10 Clear CLR 55 40     57%     30.08 30.08      
Nov 08 06:56 Calm 10 Mostly Clear FEW200 50 39     66%     30.07 30.06      
Nov 08 05:56 WSW 3 10 Mostly Clear FEW200 50 37     61%     30.06 30.06      
Nov 08 04:56 S 3 10 Mostly Clear FEW200 50 42     74%     30.05 30.05      
Nov 08 03:56 SSW 5 10 Mostly Clear FEW200 50 36     58%     30.04 30.04      
Nov 08 02:56 SW 3 10 Mostly Clear FEW200 51 30     44%     30.04 30.04      
Nov 08 01:56 Calm 10 Mostly Clear FEW200 53 40     61%     30.04 30.03      
Nov 08 00:56 Calm 10 Mostly Clear FEW200 54 37     53%     30.03 30.03      
Nov 07 23:56 W 5 10 Clear CLR 53 42     66%     30.03 30.03      
Nov 07 22:56 WNW 6 10 Clear CLR 55 43     64%     30.03 30.03      
Nov 07 21:56 Calm 10 Clear CLR 56 39     53%     30.02 30.02      
Nov 07 20:56 WNW 3 10 Clear CLR 56 39     53%     30.01 30.01      
Nov 07 19:56 Calm 10 Clear CLR 58 43     57%     30 30      
Nov 07 18:56   10 Clear CLR 56 44     64%     30 30      
Nov 07 17:56   10 Mostly Clear FEW200 58 44     60%     29.99 29.99      
Nov 07 16:56   10 Mostly Clear FEW200 61 42     50%     29.99 29.98      
Nov 07 15:56   10 Mostly Clear FEW200 67 40     37%     29.99 29.98      
Nov 07 14:56 WNW 15 10 Clear CLR 70 43     38%     30 30      
Nov 07 13:56 N 5 10 Clear CLR 69 53     57%     30 30      
Nov 07 12:56 N 3 10 Clear CLR 72 37     28%   70 30.01 30.01      
Nov 07 11:56 NE 3 10 Clear CLR 65 47     52%     30.03 30.03      
Nov 07 10:56 NE 3 10 Clear CLR 64 50     60%     30.05 30.05      
Nov 07 09:56 NNE 5 10 Clear CLR 61 49     64%     30.06 30.06      
May 15 07:56 S 7 10 Cloudy FEW013 BKN020 OVC024 57 46     67%     30.03 30.03      
May 15 01:56 SW 8 10 Mostly Cloudy FEW016 BKN019 BKN022 57 46     67%     30 30      
May 14 15:56 WSW 17 10 Mostly Clear FEW027 64 47     54%     29.98 29.98      
May 14 14:56 W 18 10 Mostly Clear FEW026 64 48     56%     29.99 29.99      
May 14 13:56 WSW 17 10 Partly Cloudy SCT026 64 48     56%     30 30      
May 14 13:46   10 Partly Cloudy SCT026 64 47     54%     30        
May 13 13:56   10 Mostly Clear FEW017 66 48     52%     30.01 30.01      
Notice The following observation data may not be complete
May 12 13:56 SW 13 10 Mostly Clear FEW015   47      %     29.88 29.88      
Notice The following observation data may not be complete
May 12 06:56 W 11 10 Clear CLR   42      %     29.83 29.83      
May 12 00:56 WNW 7 10 Clear CLR 71 38     30%   69 29.81 29.8      
May 11 22:56   10 Clear CLR 67 41     39%     29.8 29.8      
Jun 12 03:56 W 15 10 Mostly Clear FEW012 53 48     83%     30.02 30.02      
Jun 11 22:56 W 11 10 Clear CLR 55 49     80%     30.01 30.01      
Jun 11 08:56   10 Mostly Clear FEW022 58 44     60%     29.95 29.95      
Jun 10 16:56 W 17 10 Mostly Clear FEW020 FEW033 65 46     50%     29.96 29.96      
Jun 09 23:56 W 15 10 Mostly Clear FEW013 56 50     80%     30 29.99      
Jun 09 19:56 W 15 10 Mostly Clear FEW021 59 49     69%     29.97 29.97      
Jun 09 09:23 W 15 10 Cloudy SCT007 BKN018 OVC039 58 51     78%     29.97        
Jun 09 02:56 W 6 10 Mostly Cloudy FEW011 SCT041 BKN090 60 55     83%     29.96 29.95      
Jun 08 16:56 SSW 7 10 Cloudy BKN018 OVC025 66 57     73%     30 29.99     0
Jun 08 08:56 SSE 9 10 Cloudy FEW014 SCT024 OVC034 60 52     75%     29.99 29.98 0    
Jun 08 06:56 SSE 14 10 Cloudy FEW014 OVC043 61 51     70%     29.95 29.95      
Jun 08 03:56 S 9 10 Cloudy FEW055 BKN075 OVC100 60 49     67%     29.94 29.93      
Jun 07 21:56 SSW 5 10 Cloudy FEW013 SCT110 OVC150 61 44     54%     29.94 29.94      
Jun 06 07:56 WNW 7 10 Mostly Clear FEW008 57 49     74%     29.94 29.94